| time (UTC) | temp F | wind direction | speed MPH | gust MPH | rain 1hr in | rain 24hr in | rain mn in | humidity % | barometer mb |
| 20260903190044 | 88 | 177 | 15.0 | 22.0 | 0.00 | 0.00 | 0.00 | 13 | 1008.2 |
| 20260903184540 | 87 | 193 | 13.0 | 24.0 | 0.00 | 0.00 | 0.00 | 14 | 1008.4 |
| 20260903183040 | 87 | 148 | 16.0 | 24.0 | 0.00 | 0.00 | 0.00 | 14 | 1008.7 |
| 20260903181538 | 87 | 194 | 14.0 | 21.0 | 0.00 | 0.00 | 0.00 | 15 | 1008.5 |
| 20260903180037 | 86 | 149 | 8.0 | 22.0 | 0.00 | 0.00 | 0.00 | 18 | 1008.7 |
| 20260903174534 | 86 | 197 | 15.0 | 21.0 | 0.00 | 0.00 | 0.00 | 17 | 1008.7 |
| 20260903173033 | 85 | 89 | 5.0 | 17.0 | 0.00 | 0.00 | 0.00 | 19 | 1008.7 |
| 20260903171530 | 84 | 96 | 4.0 | 12.0 | 0.00 | 0.00 | 0.00 | 20 | 1008.8 |
| 20260903170032 | 84 | 113 | 7.0 | 14.0 | 0.00 | 0.00 | 0.00 | 19 | 1008.8 |
| 20260903164527 | 83 | 138 | 7.0 | 13.0 | 0.00 | 0.00 | 0.00 | 20 | 1008.8 |
| 20260903163025 | 83 | 138 | 5.0 | 17.0 | 0.00 | 0.00 | 0.00 | 20 | 1008.7 |
| 20260903161523 | 82 | 115 | 10.0 | 17.0 | 0.00 | 0.00 | 0.00 | 21 | 1008.7 |
| 20260903160021 | 82 | 139 | 6.0 | 15.0 | 0.00 | 0.00 | 0.00 | 22 | 1008.6 |
| 20260903154520 | 82 | 133 | 8.0 | 15.0 | 0.00 | 0.00 | 0.00 | 22 | 1008.6 |
| 20260903153018 | 81 | 108 | 6.0 | 15.0 | 0.00 | 0.00 | 0.00 | 21 | 1008.5 |
| 20260903151515 | 80 | 136 | 7.0 | 14.0 | 0.00 | 0.00 | 0.00 | 21 | 1008.6 |
| 20260903150031 | 80 | 114 | 5.0 | 11.0 | 0.00 | 0.00 | 0.00 | 22 | 1008.6 |
| 20260903144510 | 79 | 103 | 5.0 | 13.0 | 0.00 | 0.00 | 0.00 | 23 | 1008.6 |
| 20260903143013 | 78 | 98 | 7.0 | 12.0 | 0.00 | 0.00 | 0.00 | 24 | 1008.4 |
| 20260903141505 | 77 | 108 | 6.0 | 11.0 | 0.00 | 0.00 | 0.00 | 25 | 1008.2 |
| 20260903140006 | 77 | 105 | 4.0 | 11.0 | 0.00 | 0.00 | 0.00 | 26 | 1008.0 |
| 20260903134510 | 0 | 0.0 | 0.0 | 0.00 | 0.00 | 0.00 | 1007.9 | ||
| 20260903133004 | 0 | 0.0 | 0.0 | 0.00 | 0.00 | 0.00 | 1007.6 | ||
| 20260903131502 | 0 | 0.0 | 0.0 | 0.00 | 0.00 | 0.00 | 1007.6 | ||
| 20260903130059 | 74 | 101 | 3.0 | 7.0 | 0.00 | 0.00 | 0.00 | 33 | 1007.5 |
| 20260903124602 | 74 | 130 | 4.0 | 9.0 | 0.00 | 0.00 | 0.00 | 33 | 1007.5 |
| 20260903123055 | 75 | 110 | 4.0 | 10.0 | 0.00 | 0.00 | 0.00 | 34 | 1007.3 |
| 20260903121553 | 75 | 105 | 5.0 | 9.0 | 0.00 | 0.00 | 0.00 | 35 | 1007.3 |
| 20260903120054 | 74 | 112 | 3.0 | 8.0 | 0.00 | 0.00 | 0.00 | 37 | 1007.3 |
| 20260903114550 | 75 | 101 | 3.0 | 9.0 | 0.00 | 0.00 | 0.00 | 36 | 1007.3 |
| 20260903113049 | 75 | 95 | 4.0 | 10.0 | 0.00 | 0.00 | 0.00 | 34 | 1007.3 |
| 20260903111546 | 76 | 126 | 6.0 | 11.0 | 0.00 | 0.00 | 0.00 | 31 | 1007.6 |
| 20260903110043 | 76 | 113 | 5.0 | 12.0 | 0.00 | 0.00 | 0.00 | 30 | 1007.6 |
| 20260903104549 | 77 | 113 | 6.0 | 11.0 | 0.00 | 0.00 | 0.00 | 29 | 1007.6 |
| 20260903103140 | 77 | 115 | 4.0 | 11.0 | 0.00 | 0.00 | 0.00 | 28 | 1007.6 |
| 20260903101540 | 77 | 102 | 3.0 | 14.0 | 0.00 | 0.00 | 0.00 | 28 | 1007.6 |
| 20260903100038 | 76 | 98 | 4.0 | 11.0 | 0.00 | 0.00 | 0.00 | 27 | 1007.5 |
| 20260903094541 | 76 | 104 | 3.0 | 6.0 | 0.00 | 0.00 | 0.00 | 27 | 1007.7 |
| 20260903093050 | 76 | 102 | 3.0 | 10.0 | 0.00 | 0.00 | 0.00 | 27 | 1007.7 |
| 20260903091535 | 76 | 103 | 4.0 | 8.0 | 0.00 | 0.00 | 0.00 | 27 | 1007.9 |
| 20260903090035 | 77 | 101 | 2.0 | 9.0 | 0.00 | 0.00 | 0.00 | 25 | 1007.8 |
| 20260903084532 | 77 | 113 | 2.0 | 10.0 | 0.00 | 0.00 | 0.00 | 23 | 1007.9 |
| 20260903083031 | 76 | 105 | 3.0 | 8.0 | 0.00 | 0.00 | 0.00 | 22 | 1007.9 |
| 20260903081539 | 77 | 108 | 4.0 | 11.0 | 0.00 | 0.00 | 0.00 | 21 | 1008.1 |
| 20260903080028 | 76 | 101 | 5.0 | 9.0 | 0.00 | 0.00 | 0.00 | 21 | 1008.1 |
| 20260903074527 | 76 | 107 | 3.0 | 7.0 | 0.00 | 0.00 | 0.00 | 20 | 1008.1 |
| 20260903073030 | 76 | 89 | 4.0 | 8.0 | 0.00 | 0.00 | 0.00 | 17 | 1008.2 |
| 20260903071521 | 76 | 101 | 5.0 | 9.0 | 0.00 | 0.00 | 0.00 | 15 | 1008.4 |
| 20260903070021 | 76 | 91 | 4.0 | 9.0 | 0.00 | 0.00 | 0.00 | 14 | 1008.2 |
| 20260903064520 | 77 | 97 | 4.0 | 10.0 | 0.00 | 0.00 | 0.00 | 15 | 1008.2 |
| 20260903063018 | 78 | 113 | 5.0 | 14.0 | 0.00 | 0.00 | 0.00 | 14 | 1008.3 |
| 20260903061517 | 76 | 107 | 2.0 | 6.0 | 0.00 | 0.00 | 0.00 | 15 | 1008.4 |
| 20260903060018 | 76 | 102 | 3.0 | 7.0 | 0.00 | 0.00 | 0.00 | 16 | 1008.4 |
| 20260903054514 | 77 | 96 | 4.0 | 10.0 | 0.00 | 0.00 | 0.00 | 15 | 1008.6 |
| 20260903053012 | 78 | 108 | 5.0 | 12.0 | 0.00 | 0.00 | 0.00 | 16 | 1008.5 |
| 20260903051509 | 78 | 109 | 5.0 | 11.0 | 0.00 | 0.00 | 0.00 | 17 | 1008.6 |
| 20260903050009 | 78 | 103 | 4.0 | 9.0 | 0.00 | 0.00 | 0.00 | 17 | 1008.6 |
| 20260903044506 | 78 | 98 | 4.0 | 10.0 | 0.00 | 0.00 | 0.00 | 18 | 1008.6 |
| 20260903043008 | 77 | 97 | 4.0 | 9.0 | 0.00 | 0.00 | 0.00 | 19 | 1008.6 |
| 20260903041502 | 77 | 98 | 3.0 | 6.0 | 0.00 | 0.00 | 0.00 | 19 | 1008.5 |
| 20260903040001 | 77 | 92 | 3.0 | 8.0 | 0.00 | 0.00 | 0.00 | 19 | 1008.4 |
| 20260903034600 | 77 | 96 | 3.0 | 7.0 | 0.00 | 0.00 | 0.00 | 19 | 1008.2 |
| 20260903033059 | 78 | 110 | 3.0 | 11.0 | 0.00 | 0.00 | 0.00 | 17 | 1008.0 |
| 20260903031600 | 78 | 116 | 8.0 | 11.0 | 0.00 | 0.00 | 0.00 | 18 | 1007.9 |
| 20260903030059 | 78 | 123 | 5.0 | 9.0 | 0.00 | 0.00 | 0.00 | 20 | 1007.8 |
| 20260903024600 | 79 | 134 | 4.0 | 10.0 | 0.00 | 0.00 | 0.00 | 18 | 1007.7 |
| 20260903023117 | 80 | 132 | 4.0 | 8.0 | 0.00 | 0.00 | 0.00 | 17 | 1007.7 |
| 20260903021555 | 81 | 148 | 5.0 | 12.0 | 0.00 | 0.00 | 0.00 | 16 | 1007.6 |
| 20260903020056 | 82 | 195 | 6.0 | 14.0 | 0.00 | 0.00 | 0.00 | 14 | 1007.5 |
| 20260903014554 | 85 | 179 | 8.0 | 14.0 | 0.00 | 0.00 | 0.00 | 13 | 1007.4 |
| 20260903013057 | 86 | 165 | 9.0 | 19.0 | 0.00 | 0.00 | 0.00 | 13 | 1007.5 |
| 20260903011555 | 87 | 191 | 13.0 | 20.0 | 0.00 | 0.00 | 0.00 | 13 | 1007.5 |
| 20260903010052 | 87 | 181 | 13.0 | 20.0 | 0.00 | 0.00 | 0.00 | 12 | 1007.3 |
| 20260903004552 | 88 | 203 | 12.0 | 18.0 | 0.00 | 0.00 | 0.00 | 12 | 1007.4 |
| 20260903003053 | 89 | 199 | 14.0 | 20.0 | 0.00 | 0.00 | 0.00 | 11 | 1007.5 |
| 20260903001550 | 89 | 207 | 13.0 | 20.0 | 0.00 | 0.00 | 0.00 | 12 | 1007.5 |
| 20260903000050 | 89 | 175 | 12.0 | 20.0 | 0.00 | 0.00 | 0.00 | 12 | 1007.4 |
| 20260902234549 | 89 | 197 | 13.0 | 23.0 | 0.00 | 0.00 | 0.00 | 11 | 1007.4 |
| 20260902233048 | 90 | 170 | 12.0 | 24.0 | 0.00 | 0.00 | 0.00 | 11 | 1007.4 |
| 20260902231557 | 90 | 168 | 14.0 | 22.0 | 0.00 | 0.00 | 0.00 | 10 | 1007.5 |
| 20260902230046 | 90 | 170 | 16.0 | 24.0 | 0.00 | 0.00 | 0.00 | 11 | 1007.7 |
| 20260902224546 | 90 | 164 | 14.0 | 23.0 | 0.00 | 0.00 | 0.00 | 12 | 1007.8 |
| 20260902223044 | 90 | 155 | 15.0 | 27.0 | 0.00 | 0.00 | 0.00 | 10 | 1008.0 |
| 20260902221551 | 90 | 160 | 15.0 | 26.0 | 0.00 | 0.00 | 0.00 | 11 | 1008.3 |
| 20260902220043 | 90 | 179 | 14.0 | 24.0 | 0.00 | 0.00 | 0.00 | 11 | 1008.5 |
| 20260902214545 | 90 | 188 | 14.0 | 24.0 | 0.00 | 0.00 | 0.00 | 12 | 1008.5 |
| 20260902213049 | 90 | 148 | 16.0 | 24.0 | 0.00 | 0.00 | 0.00 | 12 | 1008.6 |
| 20260902211538 | 91 | 187 | 14.0 | 25.0 | 0.00 | 0.00 | 0.00 | 12 | 1008.7 |
| 20260902210040 | 91 | 180 | 15.0 | 24.0 | 0.00 | 0.00 | 0.00 | 13 | 1009.0 |
| 20260902204537 | 91 | 196 | 16.0 | 23.0 | 0.00 | 0.00 | 0.00 | 13 | 1009.0 |
| 20260902203038 | 90 | 179 | 14.0 | 24.0 | 0.00 | 0.00 | 0.00 | 13 | 1009.1 |
| 20260902201533 | 90 | 174 | 13.0 | 22.0 | 0.00 | 0.00 | 0.00 | 13 | 1009.1 |
| 20260902200033 | 90 | 140 | 17.0 | 26.0 | 0.00 | 0.00 | 0.00 | 14 | 1009.4 |
| 20260902194532 | 89 | 174 | 17.0 | 26.0 | 0.00 | 0.00 | 0.00 | 15 | 1009.5 |
| 20260902193030 | 89 | 193 | 18.0 | 24.0 | 0.00 | 0.00 | 0.00 | 15 | 1009.6 |
| 20260902191529 | 89 | 172 | 19.0 | 26.0 | 0.00 | 0.00 | 0.00 | 16 | 1009.7 |